Location: Berlin
(38.3226°N, 75.2177°W)
Time: 06:05:37
(UTC+00:00)

CZ-2C R/B - Pass Details

Date: 26 October 2020
Orbit: 667 x 785 km, 98.2° (Epoch: 26 November)

Event Time Altitude Azimuth Distance (km) Brightness Sun altitude
Rises 08:59:06 0° 12° (NNE) 3,207 5.9 -28.5°
Reaches altitude 10° 09:01:26 10° 12° (NNE) 2,262 5.1 -28.0°
Enters shadow 09:05:22 56° 11° (N) 863 2.7 -27.2°
